Location: *
(32.8140°S, 174.6161°E)
Time: 14:44:16
(UTC+00:00)

Cosmos 1624 Rocket - Pass Details

Date: 10 December 2019
Orbit: 757 x 784 km, 74.0° (Epoch: 19 January)

Event Time Altitude Azimuth Distance (km) Brightness Sun altitude
Rises 15:12:02 0° 200° (SSW) 3,254 7.6 -20.0°
Reaches altitude 10° 15:14:25 10° 201° (SSW) 2,324 6.8 -19.6°
Maximum altitude 15:19:40 71° 284° (WNW) 817 3.9 -18.9°
Enters shadow 15:23:41 17° 6° (N) 1,855 5.6 -18.3°
